This demonstration page uses our WeatherBlox Daily Observations layout. Learn more.

Left ArrowRight Arrow

Hourly Observations for September 28, 2015

Temp ( °F °C ) Dew Point ( °F °C ) Humidity (%) Winds ( mph kmh ) Pressure ( in mb ) Visibility ( mi km ) Precip ( " mm )
12:59 am 00:59 Mostly Cloudy 74 23.3 69 20.6 85 85 ENE 8 13 30.17 1022 7 11 0.00 0.00
1:59 am 01:59 Mostly Cloudy 74 23.3 69 20.6 85 85 E 9 15 30.17 1022 7 11 0.00 0.00
2:59 am 02:59 Mostly Cloudy 73 22.8 69 20.6 87 87 ENE 8 13 30.15 1021 7 11 0.00 0.00
3:59 am 03:59 Mostly Cloudy 73 22.8 69 20.6 87 87 ENE 10 17 30.13 1020 7 11 0.00 0.00
4:59 am 04:59 Mostly Cloudy with Mist and Fog 73 22.8 70 21.1 90 90 ENE 9 15 30.12 1020 6 10 0.00 0.00
5:59 am 05:59 Mostly Cloudy with Mist and Fog 73 22.8 70 21.1 90 90 ENE 9 15 30.12 1020 6 10 0.00 0.00
6:59 am 06:59 Mostly Cloudy with Mist and Fog 74 23.3 70 21.1 88 88 E 8 13 30.13 1020 6 10 0.00 0.00
7:59 am 07:59 Mostly Cloudy with Mist and Fog 74 23.3 70 21.1 88 88 ENE 9 15 30.14 1021 6 10 0.00 0.00
8:59 am 08:59 Mostly Cloudy with Haze 76 24.4 71 21.7 85 85 E 9 15 30.14 1021 6 10 0.00 0.00
9:59 am 09:59 Mostly Cloudy with Haze 78 25.6 70 21.1 76 76 E 12 19 30.14 1021 6 10 0.00 0.00
10:59 am 10:59 Mostly Cloudy 80 26.7 70 21.1 71 71 E 12 19 30.14 1021 7 11 0.00 0.00
11:59 am 11:59 Mostly Cloudy 78 25.6 71 21.7 79 79 ENE 14 22 30.14 1021 7 11 0.00 0.00
12:59 pm 12:59 Cloudy with Haze 78 25.6 71 21.7 79 79 E 14 22 30.13 1020 6 10 0.00 0.00
1:44 pm 13:44 Cloudy with Light Rain 77 25 72 22.2 85 85 E 12 19 30.12 1020 3 5 0.00 0.03
1:59 pm 13:59 Cloudy with Light Rain 78 25.6 73 22.8 85 85 E 14 22 30.11 1020 3 5 0.01 0.25
2:59 pm 14:59 Cloudy with Haze 78 25.6 72 22.2 82 82 E 14 22 30.09 1019 6 10 0.00 0.03
3:59 pm 15:59 Cloudy with Haze 78 25.6 72 22.2 82 82 E 14 22 30.08 1019 6 10 0.00 0.00
4:57 pm 16:57 Mostly Cloudy with Haze 79 26 72 22 79 79 E 13 20 30.06 1018 6 10 0.00 0.00
4:59 pm 16:59 Mostly Cloudy with Haze 78 25.6 72 22.2 82 82 E 12 19 30.06 1018 6 10 0.00 0.00
5:59 pm 17:59 Mostly Cloudy with Haze 77 25 71 21.7 82 82 E 12 19 30.06 1018 6 10 0.00 0.00
6:59 pm 18:59 Mostly Cloudy with Haze 76 24.4 71 21.7 85 85 E 12 19 30.05 1018 6 10 0.00 0.00
7:59 pm 19:59 Mostly Cloudy 75 23.9 71 21.7 88 88 E 8 13 30.06 1018 7 11 0.00 0.00
8:59 pm 20:59 Mostly Cloudy 75 23.9 71 21.7 88 88 E 9 15 30.06 1018 7 11 0.00 0.00
9:59 pm 21:59 Mostly Cloudy with Mist and Fog 75 23.9 72 22.2 90 90 E 10 17 30.06 1018 6 10 0.00 0.00
10:59 pm 22:59 Mostly Cloudy with Mist and Fog 75 23.9 72 22.2 90 90 E 8 13 30.06 1018 6 10 0.00 0.00
11:59 pm 23:59 Mostly Cloudy with Mist and Fog 75 23.9 72 22.2 90 90 E 6 9 30.05 1018 6 10 0.00 0.00

Powered by AerisWeather